Time,TemperatureF,DewpointF,PressureIn,WindDirection,WindDirectionDegrees,WindSpeedMPH,WindSpeedGustMPH,Humidity,HourlyPrecipIn,Conditions,Clouds,dailyrainin,SoftwareType,DateUTC
2013-01-03 00:06:00,-10.0,-14.0,29.95,West,270,5.0,5.0,88,0.00,,,0.00,TxWx,2013-01-03 05:06:00,
2013-01-03 00:11:00,-10.0,-14.0,29.95,WSW,247,3.0,5.0,88,0.00,,,0.00,TxWx,2013-01-03 05:11:00,
2013-01-03 00:16:00,-10.0,-14.0,29.95,SW,225,2.0,2.0,88,0.00,,,0.00,TxWx,2013-01-03 05:16:00,
2013-01-03 00:22:00,-10.0,-14.0,29.94,SSW,202,1.0,1.0,88,0.00,,,0.00,TxWx,2013-01-03 05:22:00,
2013-01-03 00:27:00,-10.0,-14.0,29.94,West,270,1.0,2.0,88,0.00,,,0.00,TxWx,2013-01-03 05:27:00,
2013-01-03 00:32:00,-11.0,-15.0,29.95,SSW,202,2.0,2.0,88,0.00,,,0.00,TxWx,2013-01-03 05:32:00,
2013-01-03 00:38:00,-11.0,-15.0,29.95,SW,225,3.0,3.0,88,0.00,,,0.00,TxWx,2013-01-03 05:38:00,
2013-01-03 00:43:00,-11.0,-14.0,29.95,WSW,247,3.0,4.0,89,0.00,,,0.00,TxWx,2013-01-03 05:43:00,
2013-01-03 00:48:00,-11.0,-14.0,29.95,SW,225,1.0,1.0,89,0.00,,,0.00,TxWx,2013-01-03 05:48:00,
2013-01-03 00:53:00,-11.0,-14.0,29.94,ESE,112,0.0,0.0,89,0.00,,,0.00,TxWx,2013-01-03 05:53:00,
2013-01-03 00:59:00,-11.0,-14.0,29.94,SSW,202,0.0,0.0,89,0.00,,,0.00,TxWx,2013-01-03 05:59:00,
2013-01-03 01:04:00,-11.0,-14.0,29.95,SW,225,1.0,1.0,89,0.00,,,0.00,TxWx,2013-01-03 06:04:00,
2013-01-03 01:09:00,-11.0,-14.0,29.94,SW,225,0.0,0.0,89,0.00,,,0.00,TxWx,2013-01-03 06:09:00,
2013-01-03 01:14:00,-11.0,-14.0,29.94,NW,315,1.0,1.0,89,0.00,,,0.00,TxWx,2013-01-03 06:14:00,
2013-01-03 01:19:00,-10.0,-13.0,29.94,WNW,292,1.0,1.0,89,0.00,,,0.00,TxWx,2013-01-03 06:19:00,
2013-01-03 01:24:00,-11.0,-14.0,29.93,WSW,247,0.0,0.0,89,0.00,,,0.00,TxWx,2013-01-03 06:24:00,
2013-01-03 01:29:00,-11.0,-14.0,29.94,SW,225,1.0,2.0,89,0.00,,,0.00,TxWx,2013-01-03 06:29:00,
2013-01-03 01:34:00,-11.0,-14.0,29.94,SW,225,0.0,1.0,89,0.00,,,0.00,TxWx,2013-01-03 06:34:00,
2013-01-03 01:39:00,-11.0,-14.0,29.94,SSW,202,0.0,0.0,90,0.00,,,0.00,TxWx,2013-01-03 06:39:00,
2013-01-03 01:44:00,-11.0,-14.0,29.94,South,180,0.0,1.0,89,0.00,,,0.00,TxWx,2013-01-03 06:44:00,
2013-01-03 01:50:00,-11.0,-14.0,29.94,South,180,0.0,1.0,89,0.00,,,0.00,TxWx,2013-01-03 06:50:00,
2013-01-03 01:55:00,-12.0,-15.0,29.95,SSW,202,0.0,0.0,89,0.00,,,0.00,TxWx,2013-01-03 06:55:00,
2013-01-03 02:00:00,-12.0,-15.0,29.95,ESE,112,0.0,1.0,89,0.00,,,0.00,TxWx,2013-01-03 07:00:00,
2013-01-03 02:05:00,-13.0,-16.0,29.95,NNE,22,0.0,1.0,89,0.00,,,0.00,TxWx,2013-01-03 07:05:00,
2013-01-03 02:10:00,-13.0,-16.0,29.95,SSE,157,0.0,0.0,89,0.00,,,0.00,TxWx,2013-01-03 07:10:00,
2013-01-03 02:15:00,-13.0,-16.0,29.95,SE,135,1.0,1.0,89,0.00,,,0.00,TxWx,2013-01-03 07:15:00,
2013-01-03 02:20:00,-13.0,-16.0,29.95,South,180,0.0,0.0,89,0.00,,,0.00,TxWx,2013-01-03 07:20:00,
2013-01-03 02:25:00,-13.0,-16.0,29.95,SE,135,0.0,0.0,89,0.00,,,0.00,TxWx,2013-01-03 07:25:00,
2013-01-03 02:30:00,-14.0,-17.0,29.94,NE,45,1.0,1.0,90,0.00,,,0.00,TxWx,2013-01-03 07:30:00,
2013-01-03 02:35:00,-14.0,-17.0,29.94,South,180,0.0,0.0,90,0.00,,,0.00,TxWx,2013-01-03 07:35:00,
2013-01-03 02:40:00,-14.0,-17.0,29.94,NNE,22,0.0,1.0,90,0.00,,,0.00,TxWx,2013-01-03 07:40:00,
2013-01-03 02:46:00,-14.0,-17.0,29.94,SE,135,0.0,0.0,90,0.00,,,0.00,TxWx,2013-01-03 07:46:00,
2013-01-03 02:51:00,-14.0,-17.0,29.94,SSW,202,0.0,0.0,90,0.00,,,0.00,TxWx,2013-01-03 07:51:00,
2013-01-03 02:56:00,-15.0,-18.0,29.94,West,270,1.0,2.0,90,0.00,,,0.00,TxWx,2013-01-03 07:56:00,
2013-01-03 03:01:00,-15.0,-18.0,29.95,SSW,202,0.0,0.0,90,0.00,,,0.00,TxWx,2013-01-03 08:01:00,
2013-01-03 03:06:00,-15.0,-18.0,29.94,SE,135,0.0,0.0,90,0.00,,,0.00,TxWx,2013-01-03 08:06:00,
2013-01-03 03:11:00,-15.0,-18.0,29.94,WSW,247,0.0,0.0,90,0.00,,,0.00,TxWx,2013-01-03 08:11:00,
2013-01-03 03:16:00,-15.0,-18.0,29.94,SSW,202,0.0,0.0,90,0.00,,,0.00,TxWx,2013-01-03 08:16:00,
2013-01-03 03:21:00,-15.0,-18.0,29.94,South,180,0.0,0.0,90,0.00,,,0.00,TxWx,2013-01-03 08:21:00,
2013-01-03 03:26:00,-16.0,-19.0,29.94,SSW,202,0.0,0.0,90,0.00,,,0.00,TxWx,2013-01-03 08:26:00,
2013-01-03 03:31:00,-16.0,-19.0,29.93,SW,225,0.0,0.0,90,0.00,,,0.00,TxWx,2013-01-03 08:31:00,
2013-01-03 03:37:00,-16.0,-19.0,29.93,ESE,112,0.0,0.0,90,0.00,,,0.00,TxWx,2013-01-03 08:37:00,
2013-01-03 03:42:00,-16.0,-19.0,29.94,SW,225,0.0,0.0,90,0.00,,,0.00,TxWx,2013-01-03 08:42:00,
2013-01-03 03:47:00,-16.0,-19.0,29.92,South,180,0.0,0.0,90,0.00,,,0.00,TxWx,2013-01-03 08:47:00,
2013-01-03 03:52:00,-17.0,-20.0,29.93,South,180,0.0,0.0,90,0.00,,,0.00,TxWx,2013-01-03 08:52:00,
2013-01-03 03:57:00,-17.0,-20.0,29.93,South,180,0.0,0.0,90,0.00,,,0.00,TxWx,2013-01-03 08:57:00,
2013-01-03 04:02:00,-17.0,-20.0,29.93,SSW,202,0.0,0.0,90,0.00,,,0.00,TxWx,2013-01-03 09:02:00,
2013-01-03 04:07:00,-17.0,-20.0,29.93,South,180,0.0,0.0,90,0.00,,,0.00,TxWx,2013-01-03 09:07:00,
2013-01-03 04:12:00,-17.0,-20.0,29.92,SSE,157,0.0,0.0,90,0.00,,,0.00,TxWx,2013-01-03 09:12:00,
2013-01-03 04:16:00,10.0,4.0,29.77,NNE,22,2.0,2.0,80,0.00,,,0.00,TxWx,2013-01-03 09:16:00,
2013-01-03 04:17:00,-17.0,-20.0,29.92,SW,225,0.0,0.0,90,0.00,,,0.00,TxWx,2013-01-03 09:17:00,
2013-01-03 04:22:00,-18.0,-21.0,29.92,SSW,202,0.0,0.0,90,0.00,,,0.00,TxWx,2013-01-03 09:22:00,
2013-01-03 04:27:00,-18.0,-21.0,29.92,South,180,0.0,0.0,90,0.00,,,0.00,TxWx,2013-01-03 09:27:00,
2013-01-03 04:33:00,-18.0,-21.0,29.92,SSW,202,0.0,0.0,90,0.00,,,0.00,TxWx,2013-01-03 09:33:00,
2013-01-03 04:38:00,-18.0,-21.0,29.92,SW,225,0.0,0.0,90,0.00,,,0.00,TxWx,2013-01-03 09:38:00,
2013-01-03 04:43:00,-19.0,-22.0,29.92,SW,225,0.0,0.0,90,0.00,,,0.00,TxWx,2013-01-03 09:43:00,
2013-01-03 04:48:00,-19.0,-22.0,29.92,SW,225,1.0,1.0,90,0.00,,,0.00,TxWx,2013-01-03 09:48:00,
2013-01-03 04:53:00,-19.0,-22.0,29.92,SSW,202,0.0,0.0,90,0.00,,,0.00,TxWx,2013-01-03 09:53:00,
2013-01-03 04:58:00,-19.0,-22.0,29.92,South,180,0.0,0.0,90,0.00,,,0.00,TxWx,2013-01-03 09:58:00,
2013-01-03 05:03:00,-19.0,-22.0,29.92,South,180,0.0,0.0,90,0.00,,,0.00,TxWx,2013-01-03 10:03:00,
2013-01-03 05:08:00,-19.0,-22.0,29.92,South,180,0.0,0.0,90,0.00,,,0.00,TxWx,2013-01-03 10:08:00,
2013-01-03 05:13:00,-19.0,-22.0,29.92,South,180,0.0,0.0,90,0.00,,,0.00,TxWx,2013-01-03 10:13:00,
2013-01-03 05:18:00,-19.0,-22.0,29.92,SSW,202,0.0,0.0,89,0.00,,,0.00,TxWx,2013-01-03 10:18:00,
2013-01-03 05:22:00,12.0,6.0,29.75,SSW,202,1.0,1.0,80,0.00,,,0.00,TxWx,2013-01-03 10:22:00,
2013-01-03 05:23:00,-20.0,-23.0,29.92,SSW,202,0.0,0.0,89,0.00,,,0.00,TxWx,2013-01-03 10:23:00,
2013-01-03 05:24:00,12.0,6.0,29.75,SSW,202,1.0,1.0,80,0.00,,,0.00,TxWx,2013-01-03 10:24:00,
2013-01-03 05:25:00,12.0,6.0,29.75,SSW,202,0.0,1.0,80,0.00,,,0.00,TxWx,2013-01-03 10:25:00,
2013-01-03 05:29:00,-20.0,-23.0,29.92,SSW,202,0.0,0.0,89,0.00,,,0.00,TxWx,2013-01-03 10:29:00,
2013-01-03 05:34:00,-20.0,-23.0,29.92,South,180,0.0,0.0,89,0.00,,,0.00,TxWx,2013-01-03 10:34:00,
2013-01-03 05:39:00,-20.0,-23.0,29.92,SSW,202,0.0,0.0,89,0.00,,,0.00,TxWx,2013-01-03 10:39:00,
2013-01-03 05:44:00,-20.0,-23.0,29.92,SSW,202,0.0,0.0,89,0.00,,,0.00,TxWx,2013-01-03 10:44:00,
2013-01-03 05:49:00,-20.0,-23.0,29.93,SSW,202,0.0,0.0,89,0.00,,,0.00,TxWx,2013-01-03 10:49:00,
2013-01-03 05:54:00,-20.0,-23.0,29.93,SSW,202,0.0,0.0,89,0.00,,,0.00,TxWx,2013-01-03 10:54:00,
2013-01-03 05:59:00,-21.0,-24.0,29.93,SSW,202,0.0,0.0,89,0.00,,,0.00,TxWx,2013-01-03 10:59:00,
2013-01-03 06:04:00,-20.0,-23.0,29.93,SSW,202,0.0,0.0,89,0.00,,,0.00,TxWx,2013-01-03 11:04:00,
2013-01-03 06:09:00,-20.0,-23.0,29.93,South,180,0.0,0.0,89,0.00,,,0.00,TxWx,2013-01-03 11:09:00,
2013-01-03 06:14:00,-20.0,-23.0,29.93,SSW,202,0.0,0.0,89,0.00,,,0.00,TxWx,2013-01-03 11:14:00,
2013-01-03 06:20:00,-21.0,-24.0,29.93,South,180,0.0,0.0,89,0.00,,,0.00,TxWx,2013-01-03 11:20:00,
2013-01-03 06:25:00,-21.0,-24.0,29.93,WSW,247,0.0,0.0,89,0.00,,,0.00,TxWx,2013-01-03 11:25:00,
2013-01-03 06:30:00,-21.0,-24.0,29.93,South,180,0.0,0.0,89,0.00,,,0.00,TxWx,2013-01-03 11:30:00,
2013-01-03 06:35:00,-21.0,-24.0,29.93,South,180,0.0,0.0,89,0.00,,,0.00,TxWx,2013-01-03 11:35:00,
2013-01-03 06:40:00,-21.0,-24.0,29.93,South,180,0.0,0.0,89,0.00,,,0.00,TxWx,2013-01-03 11:40:00,
2013-01-03 06:45:00,-21.0,-24.0,29.92,SSW,202,0.0,0.0,89,0.00,,,0.00,TxWx,2013-01-03 11:45:00,
2013-01-03 06:50:00,-21.0,-24.0,29.92,SSW,202,0.0,0.0,89,0.00,,,0.00,TxWx,2013-01-03 11:50:00,
2013-01-03 06:55:00,-21.0,-24.0,29.92,SSW,202,0.0,0.0,89,0.00,,,0.00,TxWx,2013-01-03 11:55:00,
2013-01-03 07:00:00,-21.0,-24.0,29.92,South,180,0.0,0.0,89,0.00,,,0.00,TxWx,2013-01-03 12:00:00,
2013-01-03 07:05:00,-21.0,-24.0,29.92,SSW,202,0.0,0.0,89,0.00,,,0.00,TxWx,2013-01-03 12:05:00,
2013-01-03 07:10:00,-22.0,-25.0,29.92,South,180,0.0,0.0,89,0.00,,,0.00,TxWx,2013-01-03 12:10:00,
2013-01-03 07:16:00,-22.0,-25.0,29.92,South,180,0.0,0.0,89,0.00,,,0.00,TxWx,2013-01-03 12:16:00,
2013-01-03 07:21:00,-22.0,-25.0,29.91,SSW,202,0.0,0.0,89,0.00,,,0.00,TxWx,2013-01-03 12:21:00,
2013-01-03 07:26:00,-22.0,-25.0,29.91,SW,225,0.0,0.0,89,0.00,,,0.00,TxWx,2013-01-03 12:26:00,
2013-01-03 07:31:00,-22.0,-25.0,29.91,SSW,202,0.0,0.0,89,0.00,,,0.00,TxWx,2013-01-03 12:31:00,
2013-01-03 07:36:00,-22.0,-25.0,29.91,SSW,202,0.0,0.0,89,0.00,,,0.00,TxWx,2013-01-03 12:36:00,
2013-01-03 07:41:00,-22.0,-25.0,29.91,SSW,202,0.0,0.0,89,0.00,,,0.00,TxWx,2013-01-03 12:41:00,
2013-01-03 07:46:00,-22.0,-25.0,29.91,South,180,0.0,0.0,89,0.00,,,0.00,TxWx,2013-01-03 12:46:00,
2013-01-03 07:51:00,-22.0,-25.0,29.91,South,180,0.0,0.0,89,0.00,,,0.00,TxWx,2013-01-03 12:51:00,
2013-01-03 07:56:00,-22.0,-25.0,29.91,South,180,0.0,0.0,89,0.00,,,0.00,TxWx,2013-01-03 12:56:00,
2013-01-03 08:01:00,-22.0,-25.0,29.91,ESE,112,0.0,0.0,89,0.00,,,0.00,TxWx,2013-01-03 13:01:00,
2013-01-03 08:06:00,-22.0,-25.0,29.91,South,180,0.0,0.0,89,0.00,,,0.00,TxWx,2013-01-03 13:06:00,
2013-01-03 08:12:00,-21.0,-24.0,29.90,SW,225,0.0,0.0,90,0.00,,,0.00,TxWx,2013-01-03 13:12:00,
2013-01-03 08:17:00,-21.0,-24.0,29.90,SSW,202,0.0,0.0,90,0.00,,,0.00,TxWx,2013-01-03 13:17:00,
2013-01-03 08:22:00,-21.0,-24.0,29.91,SSW,202,0.0,0.0,90,0.00,,,0.00,TxWx,2013-01-03 13:22:00,
2013-01-03 08:27:00,-21.0,-24.0,29.90,SSW,202,0.0,0.0,91,0.00,,,0.00,TxWx,2013-01-03 13:27:00,
2013-01-03 08:32:00,-21.0,-24.0,29.90,SSW,202,0.0,0.0,90,0.00,,,0.00,TxWx,2013-01-03 13:32:00,
2013-01-03 08:37:00,-21.0,-24.0,29.91,SSW,202,0.0,0.0,90,0.00,,,0.00,TxWx,2013-01-03 13:37:00,
2013-01-03 08:42:00,-20.0,-23.0,29.90,SSW,202,0.0,0.0,91,0.00,,,0.00,TxWx,2013-01-03 13:42:00,
2013-01-03 08:47:00,-19.0,-22.0,29.90,SSW,202,0.0,0.0,92,0.00,,,0.00,TxWx,2013-01-03 13:47:00,
2013-01-03 08:52:00,-18.0,-21.0,29.90,South,180,0.0,0.0,93,0.00,,,0.00,TxWx,2013-01-03 13:52:00,
2013-01-03 08:57:00,-17.0,-19.0,29.90,SSW,202,0.0,0.0,94,0.00,,,0.00,TxWx,2013-01-03 13:57:00,
2013-01-03 09:03:00,-16.0,-18.0,29.90,SSW,202,0.0,1.0,94,0.00,,,0.00,TxWx,2013-01-03 14:03:00,
2013-01-03 09:08:00,-16.0,-18.0,29.90,SSW,202,1.0,1.0,95,0.00,,,0.00,TxWx,2013-01-03 14:08:00,
2013-01-03 09:13:00,-15.0,-17.0,29.90,SSW,202,1.0,1.0,95,0.00,,,0.00,TxWx,2013-01-03 14:13:00,
2013-01-03 09:18:00,-14.0,-16.0,29.89,South,180,0.0,0.0,95,0.00,,,0.00,TxWx,2013-01-03 14:18:00,
2013-01-03 09:23:00,-13.0,-15.0,29.89,ESE,112,0.0,1.0,97,0.00,,,0.00,TxWx,2013-01-03 14:23:00,
2013-01-03 09:28:00,-11.0,-13.0,29.90,South,180,0.0,0.0,98,0.00,,,0.00,TxWx,2013-01-03 14:28:00,
2013-01-03 09:33:00,-10.0,-12.0,29.90,South,180,1.0,1.0,98,0.00,,,0.00,TxWx,2013-01-03 14:33:00,
2013-01-03 09:38:00,-9.0,-11.0,29.90,South,180,0.0,1.0,97,0.00,,,0.00,TxWx,2013-01-03 14:38:00,
2013-01-03 09:43:00,-9.0,-11.0,29.90,SSE,157,1.0,1.0,95,0.00,,,0.00,TxWx,2013-01-03 14:43:00,
2013-01-03 09:48:00,-9.0,-11.0,29.90,South,180,0.0,1.0,93,0.00,,,0.00,TxWx,2013-01-03 14:48:00,
2013-01-03 09:53:00,-10.0,-13.0,29.90,SSW,202,1.0,1.0,92,0.00,,,0.00,TxWx,2013-01-03 14:53:00,
2013-01-03 09:58:00,-9.0,-12.0,29.90,South,180,0.0,0.0,91,0.00,,,0.00,TxWx,2013-01-03 14:58:00,
2013-01-03 10:04:00,-9.0,-12.0,29.89,SW,225,1.0,1.0,91,0.00,,,0.00,TxWx,2013-01-03 15:04:00,
2013-01-03 10:09:00,-9.0,-12.0,29.89,SSW,202,1.0,1.0,89,0.00,,,0.00,TxWx,2013-01-03 15:09:00,
2013-01-03 10:14:00,-8.0,-11.0,29.89,South,180,1.0,1.0,89,0.00,,,0.00,TxWx,2013-01-03 15:14:00,
2013-01-03 10:19:00,-7.0,-11.0,29.89,SW,225,1.0,1.0,88,0.00,,,0.00,TxWx,2013-01-03 15:19:00,
2013-01-03 10:24:00,-6.0,-10.0,29.89,SSW,202,1.0,1.0,88,0.00,,,0.00,TxWx,2013-01-03 15:24:00,
2013-01-03 10:29:00,-5.0,-9.0,29.89,SSW,202,0.0,0.0,88,0.00,,,0.00,TxWx,2013-01-03 15:29:00,
2013-01-03 10:34:00,-5.0,-9.0,29.88,SSE,157,1.0,1.0,87,0.00,,,0.00,TxWx,2013-01-03 15:34:00,
2013-01-03 10:39:00,-5.0,-9.0,29.88,SW,225,1.0,1.0,86,0.00,,,0.00,TxWx,2013-01-03 15:39:00,
2013-01-03 10:44:00,-5.0,-9.0,29.88,SSW,202,1.0,2.0,85,0.00,,,0.00,TxWx,2013-01-03 15:44:00,
2013-01-03 10:49:00,-4.0,-8.0,29.88,SSW,202,2.0,2.0,85,0.00,,,0.00,TxWx,2013-01-03 15:49:00,
2013-01-03 10:54:00,-4.0,-9.0,29.88,SSW,202,1.0,1.0,84,0.00,,,0.00,TxWx,2013-01-03 15:54:00,
2013-01-03 11:00:00,-3.0,-8.0,29.88,SSW,202,3.0,4.0,83,0.00,,,0.00,TxWx,2013-01-03 16:00:00,
2013-01-03 11:05:00,-3.0,-8.0,29.87,SSE,157,1.0,1.0,82,0.00,,,0.00,TxWx,2013-01-03 16:05:00,
2013-01-03 11:10:00,-2.0,-7.0,29.86,SSW,202,1.0,1.0,82,0.00,,,0.00,TxWx,2013-01-03 16:10:00,
2013-01-03 11:15:00,-2.0,-7.0,29.86,South,180,1.0,1.0,82,0.00,,,0.00,TxWx,2013-01-03 16:15:00,
2013-01-03 11:20:00,-1.0,-6.0,29.86,WSW,247,1.0,1.0,82,0.00,,,0.00,TxWx,2013-01-03 16:20:00,
2013-01-03 11:25:00,0.0,-5.0,29.86,SE,135,1.0,1.0,82,0.00,,,0.00,TxWx,2013-01-03 16:25:00,
2013-01-03 11:30:00,0.0,-6.0,29.85,ENE,67,3.0,3.0,80,0.00,,,0.00,TxWx,2013-01-03 16:30:00,
2013-01-03 11:35:00,0.0,-6.0,29.85,SW,225,1.0,1.0,79,0.00,,,0.00,TxWx,2013-01-03 16:35:00,
2013-01-03 11:40:00,1.0,-5.0,29.84,South,180,0.0,1.0,80,0.00,,,0.00,TxWx,2013-01-03 16:40:00,
2013-01-03 11:45:00,1.0,-5.0,29.84,ESE,112,1.0,2.0,79,0.00,,,0.00,TxWx,2013-01-03 16:45:00,
2013-01-03 11:51:00,1.0,-5.0,29.84,ESE,112,3.0,3.0,79,0.00,,,0.00,TxWx,2013-01-03 16:51:00,
2013-01-03 11:56:00,1.0,-5.0,29.84,SSE,157,1.0,1.0,80,0.00,,,0.00,TxWx,2013-01-03 16:56:00,
2013-01-03 12:01:00,1.0,-5.0,29.83,South,180,1.0,1.0,81,0.00,,,0.00,TxWx,2013-01-03 17:01:00,
2013-01-03 12:06:00,2.0,-4.0,29.83,SSE,157,1.0,2.0,81,0.00,,,0.00,TxWx,2013-01-03 17:06:00,
2013-01-03 12:11:00,2.0,-4.0,29.83,ENE,67,1.0,2.0,81,0.00,,,0.00,TxWx,2013-01-03 17:11:00,
2013-01-03 12:16:00,3.0,-3.0,29.83,WNW,292,1.0,1.0,80,0.00,,,0.00,TxWx,2013-01-03 17:16:00,
2013-01-03 12:21:00,3.0,-3.0,29.83,ENE,67,1.0,2.0,80,0.00,,,0.00,TxWx,2013-01-03 17:21:00,
2013-01-03 12:26:00,3.0,-3.0,29.82,ESE,112,2.0,2.0,80,0.00,,,0.00,TxWx,2013-01-03 17:26:00,
2013-01-03 12:31:00,3.0,-3.0,29.82,SE,135,1.0,2.0,79,0.00,,,0.00,TxWx,2013-01-03 17:31:00,
2013-01-03 12:36:00,4.0,-2.0,29.82,ESE,112,2.0,3.0,79,0.00,,,0.00,TxWx,2013-01-03 17:36:00,
2013-01-03 12:41:00,4.0,-2.0,29.81,ESE,112,2.0,2.0,79,0.00,,,0.00,TxWx,2013-01-03 17:41:00,
2013-01-03 12:47:00,4.0,-2.0,29.81,SSE,157,1.0,1.0,79,0.00,,,0.00,TxWx,2013-01-03 17:47:00,
2013-01-03 12:52:00,5.0,-1.0,29.81,SE,135,1.0,2.0,80,0.00,,,0.00,TxWx,2013-01-03 17:52:00,
2013-01-03 12:57:00,6.0,0.0,29.81,ESE,112,1.0,1.0,80,0.00,,,0.00,TxWx,2013-01-03 17:57:00,
2013-01-03 13:02:00,7.0,1.0,29.80,South,180,0.0,0.0,81,0.00,,,0.00,TxWx,2013-01-03 18:02:00,
2013-01-03 13:07:00,7.0,1.0,29.80,SE,135,1.0,1.0,80,0.00,,,0.00,TxWx,2013-01-03 18:07:00,
2013-01-03 13:12:00,7.0,1.0,29.80,SE,135,1.0,2.0,79,0.00,,,0.00,TxWx,2013-01-03 18:12:00,
2013-01-03 13:17:00,7.0,1.0,29.80,East,90,2.0,2.0,79,0.00,,,0.00,TxWx,2013-01-03 18:17:00,
2013-01-03 13:22:00,7.0,1.0,29.79,SE,135,1.0,2.0,79,0.00,,,0.00,TxWx,2013-01-03 18:22:00,
2013-01-03 13:27:00,8.0,2.0,29.79,SSW,202,1.0,1.0,80,0.00,,,0.00,TxWx,2013-01-03 18:27:00,
2013-01-03 13:32:00,8.0,2.0,29.79,NNW,337,1.0,1.0,80,0.00,,,0.00,TxWx,2013-01-03 18:32:00,
2013-01-03 13:38:00,9.0,3.0,29.79,SE,135,1.0,1.0,80,0.00,,,0.00,TxWx,2013-01-03 18:38:00,
2013-01-03 13:43:00,9.0,3.0,29.79,SSW,202,0.0,0.0,80,0.00,,,0.00,TxWx,2013-01-03 18:43:00,
2013-01-03 13:48:00,9.0,3.0,29.78,East,90,1.0,1.0,80,0.00,,,0.00,TxWx,2013-01-03 18:48:00,
2013-01-03 13:53:00,9.0,3.0,29.78,South,180,1.0,1.0,79,0.00,,,0.00,TxWx,2013-01-03 18:53:00,
2013-01-03 13:58:00,9.0,3.0,29.78,ESE,112,2.0,2.0,79,0.00,,,0.00,TxWx,2013-01-03 18:58:00,
2013-01-03 13:59:00,11.0,9.0,29.67,SSW,202,0.0,0.0,98,0.00,,,0.00,TxWx,2013-01-03 18:59:00,
2013-01-03 14:00:00,11.0,9.0,29.67,South,180,0.0,0.0,98,0.00,,,0.00,TxWx,2013-01-03 19:00:00,
2013-01-03 14:01:00,11.0,9.0,29.67,South,180,0.0,0.0,98,0.00,,,0.00,TxWx,2013-01-03 19:01:00,
2013-01-03 14:02:00,11.0,9.0,29.67,South,180,0.0,0.0,98,0.00,,,0.00,TxWx,2013-01-03 19:02:00,
2013-01-03 14:03:00,9.0,3.0,29.77,ESE,112,1.0,2.0,79,0.00,,,0.00,TxWx,2013-01-03 19:03:00,
2013-01-03 14:04:00,11.0,9.0,29.67,SW,225,0.0,0.0,98,0.00,,,0.00,TxWx,2013-01-03 19:04:00,
2013-01-03 14:05:00,11.0,9.0,29.67,SE,135,0.0,0.0,98,0.00,,,0.00,TxWx,2013-01-03 19:05:00,
2013-01-03 14:06:00,11.0,9.0,29.67,SE,135,0.0,0.0,98,0.00,,,0.00,TxWx,2013-01-03 19:06:00,
2013-01-03 14:08:00,10.0,4.0,29.77,South,180,1.0,1.0,79,0.00,,,0.00,TxWx,2013-01-03 19:08:00,
2013-01-03 14:13:00,10.0,4.0,29.77,NE,45,1.0,1.0,80,0.00,,,0.00,TxWx,2013-01-03 19:13:00,
2013-01-03 14:18:00,10.0,4.0,29.77,West,270,1.0,1.0,80,0.00,,,0.00,TxWx,2013-01-03 19:18:00,
2013-01-03 14:53:00,12.0,6.0,29.76,SSW,202,0.0,1.0,80,0.00,,,0.00,TxWx,2013-01-03 19:53:00,
2013-01-03 14:58:00,12.0,6.0,29.76,SSW,202,0.0,0.0,80,0.00,,,0.00,TxWx,2013-01-03 19:58:00,
2013-01-03 15:03:00,12.0,6.0,29.76,SSW,202,1.0,1.0,80,0.00,,,0.00,TxWx,2013-01-03 20:03:00,
2013-01-03 15:08:00,12.0,6.0,29.76,SSE,157,1.0,1.0,80,0.00,,,0.00,TxWx,2013-01-03 20:08:00,
2013-01-03 15:09:00,12.0,11.0,29.66,SSW,202,0.0,0.0,98,0.00,,,0.00,TxWx,2013-01-03 20:09:00,
2013-01-03 15:10:00,12.0,11.0,29.66,SSW,202,0.0,0.0,98,0.00,,,0.00,TxWx,2013-01-03 20:10:00,
2013-01-03 15:11:00,12.0,11.0,29.66,South,180,0.0,0.0,98,0.00,,,0.00,TxWx,2013-01-03 20:11:00,
2013-01-03 15:13:00,12.0,6.0,29.76,South,180,0.0,0.0,80,0.00,,,0.00,TxWx,2013-01-03 20:13:00,
2013-01-03 15:18:00,12.0,6.0,29.75,SSW,202,1.0,1.0,80,0.00,,,0.00,TxWx,2013-01-03 20:18:00,
2013-01-03 15:26:00,12.0,6.0,29.76,SSW,202,0.0,1.0,80,0.00,,,0.00,TxWx,2013-01-03 20:26:00,
2013-01-03 15:31:00,12.0,6.0,29.76,SSW,202,0.0,1.0,80,0.00,,,0.00,TxWx,2013-01-03 20:31:00,
2013-01-03 15:36:00,11.0,5.0,29.76,SSW,202,1.0,1.0,81,0.00,,,0.00,TxWx,2013-01-03 20:36:00,
2013-01-03 15:41:00,11.0,5.0,29.76,SSW,202,2.0,2.0,81,0.00,,,0.00,TxWx,2013-01-03 20:41:00,
2013-01-03 15:46:00,11.0,5.0,29.76,SW,225,2.0,2.0,81,0.00,,,0.00,TxWx,2013-01-03 20:46:00,
2013-01-03 15:51:00,11.0,5.0,29.76,SSW,202,0.0,0.0,82,0.00,,,0.00,TxWx,2013-01-03 20:51:00,
2013-01-03 15:57:00,12.0,6.0,29.75,SSW,202,0.0,0.0,82,0.00,,,0.00,TxWx,2013-01-03 20:57:00,
2013-01-03 16:02:00,12.0,7.0,29.75,ESE,112,1.0,1.0,82,0.00,,,0.00,TxWx,2013-01-03 21:02:00,
2013-01-03 16:07:00,12.0,7.0,29.75,SW,225,0.0,1.0,83,0.00,,,0.00,TxWx,2013-01-03 21:07:00,
2013-01-03 16:12:00,11.0,6.0,29.75,SE,135,1.0,2.0,83,0.00,,,0.00,TxWx,2013-01-03 21:12:00,
2013-01-03 16:17:00,11.0,6.0,29.75,SSE,157,0.0,1.0,84,0.00,,,0.00,TxWx,2013-01-03 21:17:00,
2013-01-03 16:22:00,11.0,6.0,29.75,SSW,202,1.0,1.0,84,0.00,,,0.00,TxWx,2013-01-03 21:22:00,
2013-01-03 16:27:00,11.0,6.0,29.75,South,180,0.0,1.0,85,0.00,,,0.00,TxWx,2013-01-03 21:27:00,
2013-01-03 16:32:00,11.0,6.0,29.75,SSE,157,0.0,0.0,85,0.00,,,0.00,TxWx,2013-01-03 21:32:00,
2013-01-03 16:37:00,11.0,6.0,29.75,SSW,202,0.0,1.0,85,0.00,,,0.00,TxWx,2013-01-03 21:37:00,
2013-01-03 16:42:00,11.0,7.0,29.75,South,180,0.0,1.0,86,0.00,,,0.00,TxWx,2013-01-03 21:42:00,
2013-01-03 16:47:00,11.0,7.0,29.75,South,180,0.0,1.0,86,0.00,,,0.00,TxWx,2013-01-03 21:47:00,
2013-01-03 16:52:00,11.0,7.0,29.75,West,270,1.0,1.0,86,0.00,,,0.00,TxWx,2013-01-03 21:52:00,
2013-01-03 16:58:00,11.0,7.0,29.75,South,180,1.0,1.0,87,0.00,,,0.00,TxWx,2013-01-03 21:58:00,
2013-01-03 17:03:00,11.0,7.0,29.75,ESE,112,1.0,1.0,87,0.00,,,0.00,TxWx,2013-01-03 22:03:00,
2013-01-03 17:08:00,11.0,7.0,29.75,SSE,157,1.0,1.0,87,0.00,,,0.00,TxWx,2013-01-03 22:08:00,
2013-01-03 17:13:00,11.0,7.0,29.75,South,180,0.0,0.0,88,0.00,,,0.00,TxWx,2013-01-03 22:13:00,
2013-01-03 17:18:00,10.0,6.0,29.75,East,90,2.0,2.0,88,0.00,,,0.00,TxWx,2013-01-03 22:18:00,
2013-01-03 17:23:00,10.0,6.0,29.75,SSW,202,0.0,0.0,89,0.00,,,0.00,TxWx,2013-01-03 22:23:00,
2013-01-03 17:28:00,10.0,6.0,29.75,SSE,157,1.0,1.0,89,0.00,,,0.00,TxWx,2013-01-03 22:28:00,
2013-01-03 17:33:00,10.0,6.0,29.75,South,180,0.0,0.0,89,0.00,,,0.00,TxWx,2013-01-03 22:33:00,
2013-01-03 17:38:00,10.0,6.0,29.75,South,180,0.0,0.0,89,0.00,,,0.00,TxWx,2013-01-03 22:38:00,
2013-01-03 17:44:00,10.0,7.0,29.75,South,180,0.0,0.0,90,0.00,,,0.00,TxWx,2013-01-03 22:44:00,
2013-01-03 17:49:00,10.0,7.0,29.75,South,180,0.0,0.0,90,0.00,,,0.00,TxWx,2013-01-03 22:49:00,
2013-01-03 17:54:00,10.0,7.0,29.75,South,180,0.0,0.0,90,0.00,,,0.00,TxWx,2013-01-03 22:54:00,
2013-01-03 17:59:00,10.0,7.0,29.74,South,180,0.0,0.0,90,0.00,,,0.00,TxWx,2013-01-03 22:59:00,
2013-01-03 18:00:00,20.0,20.0,29.64,SW,225,1.0,1.0,100,0.00,,,0.00,TxWx,2013-01-03 23:00:00,
2013-01-03 18:02:00,20.0,20.0,29.64,SW,225,1.0,2.0,100,0.00,,,0.00,TxWx,2013-01-03 23:02:00,
2013-01-03 18:03:00,20.0,20.0,29.64,SW,225,1.0,2.0,100,0.00,,,0.00,TxWx,2013-01-03 23:03:00,
2013-01-03 18:04:00,10.0,7.0,29.75,South,180,0.0,0.0,90,0.00,,,0.00,TxWx,2013-01-03 23:04:00,
2013-01-03 18:05:00,20.0,20.0,29.64,NW,315,1.0,1.0,100,0.00,,,0.00,TxWx,2013-01-03 23:05:00,
2013-01-03 18:06:00,20.0,20.0,29.64,SW,225,1.0,3.0,100,0.00,,,0.00,TxWx,2013-01-03 23:06:00,
2013-01-03 18:09:00,10.0,7.0,29.75,SSE,157,0.0,0.0,91,0.00,,,0.00,TxWx,2013-01-03 23:09:00,
2013-01-03 18:14:00,10.0,7.0,29.74,SW,225,0.0,0.0,91,0.00,,,0.00,TxWx,2013-01-03 23:14:00,
2013-01-03 18:19:00,10.0,7.0,29.74,SSW,202,0.0,0.0,91,0.00,,,0.00,TxWx,2013-01-03 23:19:00,
2013-01-03 18:24:00,10.0,7.0,29.74,SSE,157,0.0,0.0,91,0.00,,,0.00,TxWx,2013-01-03 23:24:00,
2013-01-03 18:29:00,10.0,7.0,29.74,South,180,0.0,0.0,91,0.00,,,0.00,TxWx,2013-01-03 23:29:00,
2013-01-03 18:35:00,10.0,7.0,29.74,SSW,202,0.0,0.0,91,0.00,,,0.00,TxWx,2013-01-03 23:35:00,
2013-01-03 18:40:00,10.0,7.0,29.74,SSW,202,0.0,0.0,92,0.00,,,0.00,TxWx,2013-01-03 23:40:00,
2013-01-03 18:45:00,10.0,7.0,29.74,SSW,202,0.0,0.0,92,0.00,,,0.00,TxWx,2013-01-03 23:45:00,
2013-01-03 18:49:00,21.0,21.0,29.64,WSW,247,3.0,5.0,100,0.00,,,0.00,TxWx,2013-01-03 23:49:00,
2013-01-03 18:50:00,10.0,7.0,29.74,South,180,0.0,0.0,92,0.00,,,0.00,TxWx,2013-01-03 23:50:00,
2013-01-03 18:51:00,21.0,21.0,29.63,West,270,5.0,6.0,100,0.00,,,0.00,TxWx,2013-01-03 23:51:00,
2013-01-03 18:55:00,10.0,7.0,29.73,South,180,0.0,0.0,92,0.00,,,0.00,TxWx,2013-01-03 23:55:00,
2013-01-03 19:00:00,10.0,7.0,29.74,South,180,0.0,0.0,92,0.00,,,0.00,TxWx,2013-01-04 00:00:00,
2013-01-03 19:05:00,10.0,7.0,29.74,ENE,67,1.0,2.0,92,0.00,,,0.00,TxWx,2013-01-04 00:05:00,
2013-01-03 19:10:00,10.0,7.0,29.73,South,180,1.0,1.0,93,0.00,,,0.00,TxWx,2013-01-04 00:10:00,
2013-01-03 19:15:00,10.0,7.0,29.73,NE,45,1.0,1.0,93,0.00,,,0.00,TxWx,2013-01-04 00:15:00,
2013-01-03 19:20:00,10.0,7.0,29.73,SE,135,1.0,2.0,93,0.00,,,0.00,TxWx,2013-01-04 00:20:00,
2013-01-03 19:26:00,10.0,7.0,29.73,ESE,112,1.0,1.0,93,0.00,,,0.00,TxWx,2013-01-04 00:26:00,
2013-01-03 19:31:00,10.0,7.0,29.73,SSE,157,1.0,2.0,93,0.00,,,0.00,TxWx,2013-01-04 00:31:00,
2013-01-03 19:36:00,10.0,7.0,29.73,SE,135,1.0,1.0,93,0.00,,,0.00,TxWx,2013-01-04 00:36:00,
2013-01-03 19:41:00,10.0,8.0,29.73,SSE,157,1.0,1.0,94,0.00,,,0.00,TxWx,2013-01-04 00:41:00,
2013-01-03 19:46:00,11.0,8.0,29.73,SE,135,1.0,1.0,94,0.00,,,0.00,TxWx,2013-01-04 00:46:00,
2013-01-03 19:51:00,11.0,8.0,29.73,South,180,1.0,2.0,94,0.00,,,0.00,TxWx,2013-01-04 00:51:00,
2013-01-03 19:56:00,11.0,9.0,29.73,ENE,67,1.0,1.0,94,0.00,,,0.00,TxWx,2013-01-04 00:56:00,
2013-01-03 20:01:00,11.0,9.0,29.73,South,180,1.0,1.0,94,0.00,,,0.00,TxWx,2013-01-04 01:01:00,
2013-01-03 20:06:00,11.0,9.0,29.73,South,180,1.0,1.0,94,0.00,,,0.00,TxWx,2013-01-04 01:06:00,
2013-01-03 20:12:00,10.0,8.0,29.72,SSE,157,0.0,1.0,95,0.00,,,0.00,TxWx,2013-01-04 01:12:00,
2013-01-03 20:17:00,10.0,8.0,29.72,SE,135,1.0,1.0,95,0.00,,,0.00,TxWx,2013-01-04 01:17:00,
2013-01-03 20:22:00,10.0,8.0,29.72,ESE,112,1.0,1.0,95,0.00,,,0.00,TxWx,2013-01-04 01:22:00,
2013-01-03 20:27:00,10.0,8.0,29.72,ESE,112,2.0,2.0,95,0.00,,,0.00,TxWx,2013-01-04 01:27:00,
2013-01-03 20:32:00,10.0,8.0,29.72,SE,135,1.0,1.0,95,0.00,,,0.00,TxWx,2013-01-04 01:32:00,
2013-01-03 20:37:00,10.0,8.0,29.72,South,180,0.0,1.0,96,0.00,,,0.00,TxWx,2013-01-04 01:37:00,
2013-01-03 20:42:00,10.0,8.0,29.71,ESE,112,1.0,1.0,96,0.00,,,0.00,TxWx,2013-01-04 01:42:00,
2013-01-03 20:47:00,10.0,8.0,29.71,ESE,112,2.0,2.0,96,0.00,,,0.00,TxWx,2013-01-04 01:47:00,
2013-01-03 20:53:00,10.0,8.0,29.72,South,180,0.0,1.0,96,0.00,,,0.00,TxWx,2013-01-04 01:53:00,
2013-01-03 20:58:00,11.0,9.0,29.72,SSW,202,0.0,0.0,96,0.00,,,0.00,TxWx,2013-01-04 01:58:00,
2013-01-03 21:03:00,11.0,9.0,29.71,South,180,0.0,1.0,96,0.00,,,0.00,TxWx,2013-01-04 02:03:00,
2013-01-03 21:08:00,11.0,9.0,29.71,South,180,1.0,1.0,96,0.00,,,0.00,TxWx,2013-01-04 02:08:00,
2013-01-03 21:13:00,11.0,9.0,29.71,SSW,202,0.0,0.0,96,0.00,,,0.00,TxWx,2013-01-04 02:13:00,
2013-01-03 21:18:00,11.0,9.0,29.71,SW,225,0.0,0.0,96,0.00,,,0.00,TxWx,2013-01-04 02:18:00,
2013-01-03 21:23:00,11.0,9.0,29.71,SE,135,1.0,1.0,96,0.00,,,0.00,TxWx,2013-01-04 02:23:00,
2013-01-03 21:28:00,11.0,9.0,29.71,South,180,0.0,0.0,96,0.00,,,0.00,TxWx,2013-01-04 02:28:00,
2013-01-03 21:34:00,11.0,9.0,29.71,SE,135,0.0,0.0,96,0.00,,,0.00,TxWx,2013-01-04 02:34:00,
2013-01-03 21:39:00,11.0,9.0,29.71,SE,135,0.0,0.0,97,0.00,,,0.00,TxWx,2013-01-04 02:39:00,
2013-01-03 21:44:00,11.0,9.0,29.71,SSE,157,0.0,1.0,97,0.00,,,0.00,TxWx,2013-01-04 02:44:00,
2013-01-03 21:49:00,11.0,9.0,29.71,SSE,157,1.0,1.0,97,0.00,,,0.00,TxWx,2013-01-04 02:49:00,
2013-01-03 21:54:00,11.0,9.0,29.70,South,180,0.0,0.0,97,0.00,,,0.00,TxWx,2013-01-04 02:54:00,
2013-01-03 21:59:00,11.0,9.0,29.70,South,180,0.0,0.0,97,0.00,,,0.00,TxWx,2013-01-04 02:59:00,
2013-01-03 22:04:00,11.0,9.0,29.70,SSE,157,1.0,1.0,97,0.00,,,0.00,TxWx,2013-01-04 03:04:00,
2013-01-03 22:09:00,11.0,9.0,29.70,South,180,0.0,0.0,97,0.00,,,0.00,TxWx,2013-01-04 03:09:00,
2013-01-03 22:14:00,11.0,9.0,29.70,SSW,202,0.0,0.0,97,0.00,,,0.00,TxWx,2013-01-04 03:14:00,
2013-01-03 22:20:00,11.0,9.0,29.70,South,180,0.0,1.0,97,0.00,,,0.00,TxWx,2013-01-04 03:20:00,
2013-01-03 22:25:00,11.0,9.0,29.70,South,180,0.0,0.0,97,0.00,,,0.00,TxWx,2013-01-04 03:25:00,
2013-01-03 22:30:00,11.0,9.0,29.70,South,180,0.0,0.0,97,0.00,,,0.00,TxWx,2013-01-04 03:30:00,
2013-01-03 22:35:00,11.0,9.0,29.70,South,180,0.0,1.0,97,0.00,,,0.00,TxWx,2013-01-04 03:35:00,
2013-01-03 22:40:00,11.0,9.0,29.70,South,180,0.0,0.0,97,0.00,,,0.00,TxWx,2013-01-04 03:40:00,
2013-01-03 22:45:00,11.0,9.0,29.70,South,180,0.0,0.0,97,0.00,,,0.00,TxWx,2013-01-04 03:45:00,
2013-01-03 22:50:00,11.0,9.0,29.69,SSE,157,1.0,1.0,97,0.00,,,0.00,TxWx,2013-01-04 03:50:00,
2013-01-03 22:55:00,11.0,9.0,29.70,SSW,202,0.0,0.0,97,0.00,,,0.00,TxWx,2013-01-04 03:55:00,
2013-01-03 23:00:00,11.0,9.0,29.69,South,180,0.0,0.0,97,0.00,,,0.00,TxWx,2013-01-04 04:00:00,
2013-01-03 23:06:00,11.0,9.0,29.69,SSW,202,0.0,0.0,97,0.00,,,0.00,TxWx,2013-01-04 04:06:00,
2013-01-03 23:11:00,11.0,9.0,29.69,SSE,157,0.0,1.0,97,0.00,,,0.00,TxWx,2013-01-04 04:11:00,
2013-01-03 23:16:00,11.0,9.0,29.69,South,180,0.0,1.0,97,0.00,,,0.00,TxWx,2013-01-04 04:16:00,
2013-01-03 23:21:00,11.0,9.0,29.68,South,180,0.0,0.0,97,0.00,,,0.00,TxWx,2013-01-04 04:21:00,
2013-01-03 23:26:00,11.0,9.0,29.68,SSW,202,0.0,0.0,97,0.00,,,0.00,TxWx,2013-01-04 04:26:00,
2013-01-03 23:31:00,11.0,9.0,29.68,South,180,0.0,0.0,97,0.00,,,0.00,TxWx,2013-01-04 04:31:00,
2013-01-03 23:36:00,11.0,9.0,29.68,SE,135,1.0,1.0,97,0.00,,,0.00,TxWx,2013-01-04 04:36:00,
2013-01-03 23:41:00,11.0,9.0,29.67,South,180,0.0,1.0,98,0.00,,,0.00,TxWx,2013-01-04 04:41:00,
2013-01-03 23:47:00,11.0,9.0,29.68,South,180,0.0,0.0,98,0.00,,,0.00,TxWx,2013-01-04 04:47:00,
2013-01-03 23:52:00,11.0,9.0,29.67,SSE,157,0.0,1.0,98,0.00,,,0.00,TxWx,2013-01-04 04:52:00,
2013-01-03 23:57:00,11.0,9.0,29.67,South,180,0.0,0.0,98,0.00,,,0.00,TxWx,2013-01-04 04:57:00,